This is the latest recevied weather packets stored in our database for station/object KD7CTY. If no packets are shown the sender has not sent any weather packets the latest 10 day(s).
| Time | Temp. | Humidity | Pressure | Rain* | Wind** | Luminosity | Snow |
|---|---|---|---|---|---|---|---|
| 1777770211 | 24.44° C | 43% | 1012 hPa | 0 mm | - | 269 W/m² | - |
| 1777769907 | 24.44° C | 43% | 1012 hPa | 0 mm | - | 290 W/m² | - |
| 1777769605 | 24.44° C | 44% | 1012.3 hPa | 0 mm | - | 307 W/m² | - |
| 1777769301 | 24.44° C | 45% | 1012.1 hPa | 0 mm | - | 327 W/m² | - |
| 1777768999 | 24.44° C | 44% | 1012.2 hPa | 0 mm | - | 346 W/m² | - |
| 1777768696 | 24.44° C | 43% | 1012.2 hPa | 0 mm | - | 364 W/m² | - |
| 1777768393 | 24.44° C | 45% | 1012.2 hPa | 0 mm | - | 386 W/m² | - |
| 1777768090 | 24.44° C | 44% | 1012.3 hPa | 0 mm | - | 406 W/m² | - |
| 1777767787 | 25° C | 44% | 1012.3 hPa | 0 mm | - | 419 W/m² | - |
| 1777767483 | 23.89° C | 46% | 1012.3 hPa | 0 mm | - | 430 W/m² | - |
| 1777767180 | 23.89° C | 46% | 1012.4 hPa | 0 mm | - | 434 W/m² | - |
| 1777766877 | 23.89° C | 46% | 1012.3 hPa | 0 mm | - | 452 W/m² | - |
| 1777766574 | 23.89° C | 48% | 1012.4 hPa | 0 mm | - | 438 W/m² | - |
| 1777766271 | 24.44° C | 46% | 1012.7 hPa | 0 mm | - | 456 W/m² | - |
| 1777765969 | 24.44° C | 45% | 1012.4 hPa | 0 mm | - | 481 W/m² | - |
| 1777765665 | 24.44° C | 45% | 1012.7 hPa | 0 mm | - | 496 W/m² | - |
| 1777765363 | 24.44° C | 46% | 1012.6 hPa | 0 mm | - | 512 W/m² | - |
| 1777765058 | 24.44° C | 45% | 1012.8 hPa | 0 mm | - | 524 W/m² | - |
| 1777764755 | 25° C | 46% | 1012.7 hPa | 0 mm | - | 528 W/m² | - |
| 1777764451 | 24.44° C | 49% | 1012.9 hPa | 0 mm | - | 538 W/m² | - |
| 1777764148 | 24.44° C | 47% | 1012.9 hPa | 0 mm | - | 557 W/m² | - |
| 1777763845 | 23.89° C | 47% | 1013.1 hPa | 0 mm | - | 541 W/m² | - |
| 1777763543 | 23.89° C | 48% | 1013 hPa | 0 mm | - | 533 W/m² | - |
| 1777763242 | 24.44° C | 47% | 1013 hPa | 0 mm | - | 532 W/m² | - |
| 1777762939 | 23.89° C | 48% | 1013.2 hPa | 0 mm | - | 522 W/m² | - |
* Rain latest hour (hover to see other rain measurements)
** Current wind speed in m/s (hover to see current wind gust speed)